Location: Chiroubles
(46.1812°N, 4.6660°E)
Time: 02:20:14
(UTC+00:00)

Iridium 4 Rocket - Pass Details

Date: 15 August 2020
Orbit: 586 x 903 km, 86.9° (Epoch: 19 September)

Event Time Altitude Azimuth Distance (km) Brightness Sun altitude
Exits shadow 22:18:29 31° 272° (W) 1,062 4.4 -27.0°
Maximum altitude 22:18:45 31° 279° (W) 1,054 4.5 -27.0°
Drops below altitude 10° 22:22:29 10° 343° (NNW) 1,920 6.6 -27.3°
Sets 22:24:52 0° 354° (N) 2,828 7.6 -27.4°
